time_stamp(utc),avg(mph),gust(mph),direction(deg),12m_air_temp(f),sonic_u(cm/s),sonic_v(cm/s),sonic_w(cm/s),pressure,2m_air_temp(f),pyranometer(W/m^2)
"2019-01-20 00:02:07+00",16.9,18.9,,41.8,703,-288,-3,1014.22,41.1,0
"2019-01-20 00:07:07+00",15.7,17.7,,41.8,628,-294,7,1014.22,41.2,0
"2019-01-20 00:12:07+00",16.8,20.8,,41.9,695,-259,26,1013.84,41.2,0
"2019-01-20 00:17:07+00",16.7,19.7,,41.9,674,-284,13,1013.85,41.2,0
"2019-01-20 00:22:07+00",16.9,20.9,,42,694,-325,10,1013.9,41.3,0
"2019-01-20 00:27:07+00",17.2,19.2,,42.1,681,-335,13,1013.82,41.4,0
"2019-01-20 00:32:07+00",17.1,20.1,,42.2,697,-328,17,1013.75,41.4,0
"2019-01-20 00:37:07+00",16.8,19.8,,42.2,685,-321,6,1013.49,41.5,0
"2019-01-20 00:42:07+00",18.2,21.2,,42.2,721,-367,-3,1013.36,41.5,0
"2019-01-20 00:47:07+00",17.2,19.2,,42.3,651,-389,6,1013.51,41.6,0
"2019-01-20 00:52:07+00",16.3,19.3,,42.3,609,-380,11,1013.45,41.6,0
"2019-01-20 00:57:07+00",19.0,21.0,,42.4,718,-441,3,1012.95,41.6,0
"2019-01-20 01:02:07+00",17.8,19.8,,42.4,678,-435,7,1013.07,41.6,0
"2019-01-20 01:07:07+00",19.3,22.3,,42.4,750,-419,3,1012.52,41.5,0
"2019-01-20 01:12:07+00",18.1,20.1,,42.4,732,-361,18,1012.4,41.6,0
"2019-01-20 01:17:07+00",19.6,22.6,,42.4,802,-338,17,1012.1,41.6,0
"2019-01-20 01:22:07+00",18.3,22.3,,42.3,754,-303,16,1011.89,41.6,0
"2019-01-20 01:27:07+00",19.3,22.3,,42.4,768,-353,7,1011.91,41.7,0
"2019-01-20 01:32:07+00",17.9,20.9,,42.4,709,-354,24,1011.96,41.7,0
"2019-01-20 01:37:07+00",18.2,21.2,,42.4,734,-343,19,1011.8,41.7,0
"2019-01-20 01:42:07+00",18.4,20.4,,42.4,741,-328,15,1011.46,41.7,0
"2019-01-20 01:47:07+00",19.7,23.7,,42.5,801,-365,10,1011.24,41.8,0
"2019-01-20 01:52:07+00",22.7,24.7,,42.5,877,-504,-9,1011.13,41.8,0
"2019-01-20 01:57:07+00",21.2,26.2,,42.4,839,-426,4,1010.81,41.7,0
"2019-01-20 02:02:07+00",21.5,24.5,,42.5,830,-464,9,1010.94,41.7,0
"2019-01-20 02:07:07+00",21.8,24.8,,42.5,874,-421,-8,1010.71,41.8,0
"2019-01-20 02:12:07+00",20.0,25.0,,42.6,810,-374,6,1010.66,41.8,0
"2019-01-20 02:17:07+00",19.9,22.9,,42.7,812,-365,2,1010.51,41.9,0
"2019-01-20 02:22:07+00",20.3,24.3,,42.7,851,-329,20,1010.13,42,0
"2019-01-20 02:27:07+00",21.2,25.2,,42.7,866,-328,14,1009.7,42,0
"2019-01-20 02:32:07+00",19.8,22.8,,42.6,803,-328,6,1009.77,42,0
"2019-01-20 02:37:07+00",20.8,22.8,,42.6,853,-369,6,1009.45,42,0
"2019-01-20 02:42:07+00",21.5,24.5,,42.8,870,-406,19,1009.53,42.1,0
"2019-01-20 02:47:07+00",21.2,24.2,,42.9,842,-418,18,1009.38,42.2,0
"2019-01-20 02:52:07+00",21.1,27.1,,43,864,-372,-3,1009.26,42.3,0
"2019-01-20 02:57:07+00",19.5,23.5,,42.9,822,-308,34,1009.12,42.3,0
"2019-01-20 03:02:07+00",19.7,22.7,,42.9,832,-293,27,1008.98,42.3,0
"2019-01-20 03:07:07+00",18.7,22.7,,42.9,776,-287,22,1009.02,42.3,0
"2019-01-20 03:12:07+00",20.4,23.4,,43,861,-297,-2,1008.78,42.3,0
"2019-01-20 03:17:07+00",20.7,24.7,,43,860,-327,18,1008.43,42.3,0
"2019-01-20 03:22:07+00",22.5,28.5,,43,958,-315,18,1007.81,42.3,0
"2019-01-20 03:27:07+00",20.1,22.1,,43,841,-303,-4,1007.91,42.4,0
"2019-01-20 03:32:07+00",21.8,25.8,,43.1,899,-359,18,1007.65,42.4,0
"2019-01-20 03:37:07+00",19.9,21.9,,43.1,817,-326,-19,1007.57,42.5,0
"2019-01-20 03:42:07+00",20.7,23.7,,43.2,854,-324,12,1007.34,42.5,0
"2019-01-20 03:47:07+00",20.3,25.3,,43.2,834,-344,12,1007.63,42.6,0
"2019-01-20 03:52:07+00",22.6,25.6,,43.4,938,-345,16,1007,42.7,0
"2019-01-20 03:57:07+00",19.7,24.7,,43.3,799,-335,34,1006.87,42.7,0
"2019-01-20 04:02:07+00",21.0,24.0,,43.4,859,-366,6,1006.72,42.8,0
"2019-01-20 04:07:07+00",24.3,29.3,,43.4,995,-443,3,1006.27,42.8,0
"2019-01-20 04:12:07+00",27.4,33.4,,43.7,1090,-554,-8,1006.3,42.9,0
"2019-01-20 04:17:07+00",20.1,23.1,,43.4,818,-393,6,1006.46,42.9,0
"2019-01-20 04:22:07+00",20.8,25.8,,43.3,833,-407,15,1006.18,42.8,0
"2019-01-20 04:27:07+00",20.0,25.0,,43.2,787,-432,35,1006.14,42.8,0
"2019-01-20 04:32:07+00",22.8,25.8,,43.3,907,-453,-6,1005.88,42.8,0
"2019-01-20 04:37:07+00",23.3,27.3,,43.2,906,-513,1,1005.62,42.7,0
"2019-01-20 04:42:07+00",26.9,28.9,,43.3,1074,-509,8,1005.27,42.8,0
"2019-01-20 04:47:07+00",24.4,27.4,,43.3,962,-471,23,1005.07,42.8,0
"2019-01-20 04:52:07+00",22.4,28.4,,43.2,887,-452,19,1005.03,42.8,0
"2019-01-20 04:57:07+00",23.7,26.7,,43.3,943,-459,27,1004.8,42.8,0
"2019-01-20 05:02:07+00",23.7,26.7,,43.3,917,-529,3,1004.66,42.8,0
"2019-01-20 05:07:07+00",22.7,26.7,,43.4,871,-528,5,1004.52,42.9,0
"2019-01-20 05:12:07+00",26.9,31.9,,43.7,1002,-653,17,1004.27,43.1,0
"2019-01-20 05:17:07+00",18.3,23.3,,43.8,686,-431,19,1004.26,43.3,0
"2019-01-20 05:22:07+00",28.1,32.1,,44.2,1040,-672,-1,1003.97,43.6,0
"2019-01-20 05:27:07+00",20.9,24.9,,43.9,794,-506,5,1003.9,43.5,0
"2019-01-20 05:32:07+00",23.5,27.5,,43.9,905,-519,17,1003.63,43.5,0
"2019-01-20 05:37:07+00",22.2,24.2,,44,842,-513,7,1003.55,43.5,0
"2019-01-20 05:42:07+00",18.5,20.5,,44.2,681,-462,-7,1003.61,43.6,0
"2019-01-20 05:47:07+00",19.7,22.7,,44.6,688,-521,-5,1003.59,44,0
"2019-01-20 05:52:07+00",18.3,22.3,,44.7,639,-476,15,1003.45,44.1,0
"2019-01-20 05:57:07+00",17.0,20.0,,44.7,576,-484,4,1003.54,44.1,0
"2019-01-20 06:02:07+00",17.8,23.8,,44.9,638,-458,21,1003.42,44.3,0
"2019-01-20 06:07:07+00",14.6,18.6,,45.1,372,-498,4,1003.6,44.6,0
"2019-01-20 06:12:07+00",19.4,21.4,,45.1,617,-581,0,1003.28,44.6,0
"2019-01-20 06:17:07+00",17.4,20.4,,45.2,553,-523,16,1003.18,44.7,0
"2019-01-20 06:22:07+00",12.1,16.1,,45.1,320,-404,9,1003.47,44.6,0
"2019-01-20 06:27:07+00",2.2,6.2,,45.1,-38,-11,9,1003.67,44.7,0
"2019-01-20 06:32:07+00",8.4,10.4,,44.8,-199,305,11,1003.45,44.5,0
"2019-01-20 06:37:07+00",2.6,3.6,,44.8,-66,76,14,1003.33,44.5,0
"2019-01-20 06:42:07+00",1.0,2.0,,44.8,-15,48,16,1003.27,44.5,0
"2019-01-20 06:47:07+00",5.4,7.4,,44.8,209,-102,-8,1002.66,44.3,0
"2019-01-20 06:52:07+00",14.6,18.6,,45.5,606,-222,12,1002.21,44.7,0
"2019-01-20 06:57:07+00",14.2,15.2,,45.5,552,-316,-6,1002.22,44.8,0
"2019-01-20 07:02:07+00",13.8,14.8,,45.5,553,-262,2,1001.97,44.8,0
"2019-01-20 07:07:07+00",16.3,20.3,,46.1,418,-573,-12,1001.89,45.2,0
"2019-01-20 07:12:07+00",14.7,17.7,,46.4,457,-447,9,1001.93,45.5,0
"2019-01-20 07:17:07+00",15.6,18.6,,46.1,541,-404,6,1001.57,45.4,0
"2019-01-20 07:22:07+00",14.3,16.3,,45.6,563,-297,5,1001.46,45,0
"2019-01-20 07:27:07+00",15.7,18.7,,45.4,630,-311,1,1001.12,44.8,0
"2019-01-20 07:32:07+00",13.1,14.1,,45.3,520,-245,10,1001.03,44.7,0
"2019-01-20 07:37:07+00",12.0,14.0,,45.2,495,-197,-4,1000.76,44.7,0
"2019-01-20 07:42:07+00",10.4,12.4,,45.1,426,-178,2,1000.79,44.6,0
"2019-01-20 07:47:07+00",9.8,10.8,,45.2,426,-114,3,1000.51,44.6,0
"2019-01-20 07:52:07+00",8.3,10.3,,45.2,352,-114,10,1000.36,44.6,0
"2019-01-20 07:57:07+00",6.2,7.2,,45.4,259,-56,11,1000.2,44.7,0
"2019-01-20 08:02:07+00",6.3,7.3,,45.6,-887,1861,-1082,1000.14,44.7,0
"2019-01-20 08:07:07+00",6.6,7.6,,45.6,583,-530,279,999.72,44.8,0
"2019-01-20 08:12:07+00",4.9,5.9,,45.5,421,-309,208,999.86,44.8,0
"2019-01-20 08:17:07+00",5.0,6.0,,45.2,200,74,21,999.72,44.7,0
"2019-01-20 08:22:07+00",5.6,6.6,,43.8,219,93,15,999.47,43.9,0
"2019-01-20 08:27:07+00",5.0,6.0,,44.1,200,86,6,999.15,43.5,0
"2019-01-20 08:32:07+00",5.6,6.6,,44.6,241,2,2,999.03,43.6,0
"2019-01-20 08:37:07+00",6.8,7.8,,45.5,141,-255,-8,999.4,43.9,0
"2019-01-20 08:42:07+00",4.6,5.6,,46.1,163,-114,-4,998.92,44.6,0
"2019-01-20 08:47:07+00",5.3,6.3,,46.7,80,-211,-14,998.9,44.9,0
"2019-01-20 08:52:07+00",8.0,9.0,,47.1,32,-339,-8,999.1,45.9,0
"2019-01-20 08:57:07+00",11.0,13.0,,47.9,-96,-451,-14,999.02,46.9,0
"2019-01-20 09:02:07+00",10.3,12.3,,48.3,-169,-403,0,998.7,47.4,0
"2019-01-20 09:07:07+00",9.1,11.1,,48.3,-153,-351,-2,998.52,47.7,0
"2019-01-20 09:12:07+00",9.4,11.4,,48.5,-221,-349,-2,998.51,47.6,0
"2019-01-20 09:17:07+00",7.9,10.9,,48.4,-96,-306,-8,998.08,47.7,0
"2019-01-20 09:22:07+00",9.7,11.7,,49.1,-24,-410,-14,997.59,48.3,0
"2019-01-20 09:27:07+00",13.6,15.6,,48.9,-309,-506,10,998.19,48.3,0
"2019-01-20 09:32:07+00",13.6,15.6,,48.7,-260,-515,0,997.94,47.9,0
"2019-01-20 09:37:07+00",12.1,13.1,,48.3,-191,-472,-8,997.59,47.7,0
"2019-01-20 09:42:07+00",11.0,13.0,,48.1,-302,-386,-4,997.36,47.3,0
"2019-01-20 09:47:07+00",13.4,14.4,,48.1,-253,-501,-4,997.47,47.1,0
"2019-01-20 09:52:07+00",11.0,13.0,,47.9,-180,-427,-3,997.47,47.1,0
"2019-01-20 09:57:07+00",11.3,14.3,,47.8,-106,-468,2,997.47,47.2,0
"2019-01-20 10:02:07+00",10.5,11.5,,48.4,-224,-389,5,996.96,47.5,0
"2019-01-20 10:07:07+00",9.2,10.2,,48.1,-284,-285,8,996.89,47.1,0
"2019-01-20 10:12:07+00",10.3,13.3,,47.9,0,-430,-15,996.64,47.2,0
"2019-01-20 10:17:07+00",11.0,13.0,,48.4,-98,-456,-12,996.31,47.8,0
"2019-01-20 10:22:07+00",12.4,15.4,,48.6,-106,-509,-12,996.19,48,0
"2019-01-20 10:27:07+00",11.0,14.0,,48.6,-135,-437,0,995.78,48,0
"2019-01-20 10:32:07+00",8.9,10.9,,48.2,-113,-358,3,995.96,47.7,0
"2019-01-20 10:37:07+00",9.7,11.7,,47.8,-379,-186,9,995.93,46.6,0
"2019-01-20 10:42:07+00",10.2,11.2,,47.7,-442,-174,16,996.05,46.3,0
"2019-01-20 10:47:07+00",6.8,7.8,,47.3,-198,-218,8,995.44,45.8,0
"2019-01-20 10:52:07+00",6.8,7.8,,47.6,-241,-158,1,995.21,45.8,0
"2019-01-20 10:57:07+00",8.9,8.9,,48.2,-364,-190,9,995.51,45.4,0
"2019-01-20 11:02:07+00",10.6,11.6,,48.2,-336,-305,4,995.58,45.1,0
"2019-01-20 11:07:07+00",9.7,10.7,,46.9,-153,-381,-3,995.69,45.1,0
"2019-01-20 11:12:07+00",7.1,8.1,,46.9,-227,-200,3,995.22,45.2,0
"2019-01-20 11:17:07+00",6.8,7.8,,46.8,-48,-276,-10,995.2,45.7,0
"2019-01-20 11:22:07+00",6.4,6.4,,47.3,12,-266,-8,994.81,45.2,0
"2019-01-20 11:27:07+00",9.8,10.8,,47.5,2,-413,-10,994.92,45.7,0
"2019-01-20 11:32:07+00",7.0,9.0,,47.7,-87,-272,-16,994.66,46.2,0
"2019-01-20 11:37:07+00",8.4,9.4,,47.7,-57,-350,-7,994.61,46.3,0
"2019-01-20 11:42:07+00",13.1,14.1,,47.4,64,-557,-24,994.64,46.1,0
"2019-01-20 11:47:07+00",12.9,15.9,,46.3,17,-552,-21,994.67,45.1,0
"2019-01-20 11:52:07+00",11.7,13.7,,46.4,-7,-494,-27,994.51,45.4,0
"2019-01-20 11:57:07+00",11.6,14.6,,47.6,-94,-472,4,994.61,46.4,0
"2019-01-20 12:02:07+00",11.0,13.0,,47.9,-104,-443,1,994.55,47.3,0
"2019-01-20 12:07:07+00",10.9,12.9,,47.7,-135,-440,4,994.24,47,0
"2019-01-20 12:12:07+00",8.7,10.7,,47.8,-28,-373,-7,994.04,47.3,0
"2019-01-20 12:17:07+00",12.3,15.3,,48.6,-75,-513,-19,994.03,47.7,0
"2019-01-20 12:22:07+00",11.7,12.7,,46.6,41,-495,-9,993.94,46.1,0
"2019-01-20 12:27:07+00",14.0,16.0,,46,72,-597,-19,993.88,44.7,0
"2019-01-20 12:32:07+00",14.1,16.1,,46.8,-28,-600,-21,994,45.6,0
"2019-01-20 12:37:07+00",13.6,16.6,,46.3,-22,-568,-33,994.07,45.2,0
"2019-01-20 12:42:07+00",20.0,24.0,,48.9,-318,-783,-8,994.37,47,0
"2019-01-20 12:47:07+00",15.7,18.7,,48.6,-241,-613,1,993.8,47.4,0
"2019-01-20 12:52:07+00",17.5,19.5,,48.6,-303,-667,-3,993.88,46.9,0
"2019-01-20 12:57:07+00",17.4,20.4,,48.7,-231,-695,3,993.84,47.3,0
"2019-01-20 13:02:07+00",14.4,18.4,,48.5,-62,-627,-20,993.68,47.6,0
"2019-01-20 13:07:07+00",15.2,17.2,,50.1,-99,-629,-27,993.26,49,0
"2019-01-20 13:12:07+00",14.4,18.4,,50.3,-73,-605,-23,992.86,49.5,0
"2019-01-20 13:17:07+00",14.0,18.0,,50.4,-12,-594,-9,992.62,49.9,0
"2019-01-20 13:22:07+00",16.3,18.3,,47.4,32,-692,-17,992.68,46.9,0
"2019-01-20 13:27:07+00",14.9,17.9,,48.3,-42,-631,-20,992.66,46.9,0
"2019-01-20 13:32:07+00",16.6,18.6,,48.6,29,-680,-4,992.22,47.7,0
"2019-01-20 13:37:07+00",16.1,18.1,,47.7,89,-678,-8,991.91,46.7,0
"2019-01-20 13:42:07+00",14.0,15.0,,47,108,-598,-24,991.56,45.9,0
"2019-01-20 13:47:07+00",15.7,17.7,,47.7,31,-655,-15,991.41,46.4,0
"2019-01-20 13:52:07+00",16.1,19.1,,48.2,-4,-650,14,991.15,47.2,0
"2019-01-20 13:57:07+00",18.8,21.8,,48.1,74,-788,-1,991.14,47,0
"2019-01-20 14:02:07+00",18.6,23.6,,48.2,-8,-785,12,991.04,47.3,0
"2019-01-20 14:07:07+00",16.7,19.7,,48.3,-12,-711,-4,990.92,47.5,0
"2019-01-20 14:12:07+00",16.3,21.3,,48.4,-54,-692,-15,990.82,47.5,0
"2019-01-20 14:17:07+00",20.4,23.4,,47.8,-7,-870,47,990.31,47.1,0
"2019-01-20 14:22:07+00",16.7,19.7,,47.6,7,-632,40,990.56,47,0
"2019-01-20 14:27:07+00",17.7,21.7,,48.2,-151,-730,3,990.92,47.4,0
"2019-01-20 14:32:07+00",16.6,20.6,,49.2,-127,-670,-23,990.56,48.7,0
"2019-01-20 14:37:07+00",14.5,17.5,,48.8,-159,-578,4,990.36,48.4,0
"2019-01-20 14:42:07+00",13.1,17.1,,48.1,-168,-531,2,990.31,47.5,0
"2019-01-20 14:47:07+00",15.2,17.2,,48,-228,-597,-9,990.28,47,0
"2019-01-20 14:52:07+00",14.3,17.3,,47.7,-187,-577,5,990.3,47,0
"2019-01-20 14:57:07+00",18.5,25.5,,48.9,-224,-742,35,989.89,48.2,0
"2019-01-20 15:02:07+00",19.5,25.5,,49,-254,-765,41,990.19,48.2,0
"2019-01-20 15:07:07+00",23.8,27.8,,49.1,-313,-811,73,990.49,48.2,0
"2019-01-20 15:12:07+00",20.3,23.3,,49.3,-268,-767,21,989.7,48.5,0
"2019-01-20 15:17:07+00",18.1,21.1,,49.4,-264,-703,-3,989.36,48.5,0
"2019-01-20 15:22:07+00",19.2,22.2,,49.8,-377,-723,4,989.35,48.8,11.1
"2019-01-20 15:27:07+00",17.5,19.5,,49.3,-455,-623,19,989.67,48.4,8.2
"2019-01-20 15:32:07+00",15.7,17.7,,48.8,-415,-554,12,989.78,47.9,3.7
"2019-01-20 15:37:07+00",16.9,19.9,,48.9,-415,-610,-4,990.1,47.9,0.4
"2019-01-20 15:42:07+00",14.9,16.9,,48.7,-263,-567,-4,989.93,47.8,0.2
"2019-01-20 15:47:07+00",11.9,13.9,,48.6,-280,-439,15,989.65,47.8,1.7
"2019-01-20 15:52:07+00",13.7,15.7,,48.1,-236,-524,-3,990.01,47.5,1
"2019-01-20 15:57:07+00",13.2,18.2,,48.2,-161,-530,11,989.78,47.7,0
"2019-01-20 16:02:07+00",18.9,24.9,,47.5,-303,-726,-5,989.68,47.1,1.4
"2019-01-20 16:07:07+00",17.9,21.9,,47.3,-336,-670,8,989.77,46.9,19.7
"2019-01-20 16:12:07+00",16.6,18.6,,47.4,-310,-624,8,989.77,47,24.9
"2019-01-20 16:17:07+00",15.4,17.4,,47.3,-367,-569,-2,989.39,46.9,18.5
"2019-01-20 16:22:07+00",14.2,17.2,,47.2,-359,-521,1,989.16,46.9,10.9
"2019-01-20 16:27:07+00",14.4,16.4,,47.1,-388,-518,13,989.27,46.6,0
"2019-01-20 16:32:07+00",15.1,18.1,,47.2,-516,-404,13,989.3,46.6,0
"2019-01-20 16:37:07+00",13.8,15.8,,46.7,-559,-303,22,989.25,46.3,0
"2019-01-20 16:42:07+00",17.8,20.8,,46.6,-683,-415,26,989.25,45.9,34.5
"2019-01-20 16:47:07+00",14.3,16.3,,46.8,-592,-132,11,989.27,46.1,9.6
"2019-01-20 16:52:07+00",21.3,24.3,,48.9,-884,367,58,989.32,47.2,22.7
"2019-01-20 16:57:07+00",22.6,25.6,,49.2,-899,470,77,989.51,47.3,0
"2019-01-20 17:02:07+00",27.4,32.4,,48.9,-1506,1557,-451,989.48,46.9,0
"2019-01-20 17:07:07+00",30.0,33.0,,48.7,-2286,2719,-1083,989.53,46.6,1.7
"2019-01-20 17:22:07+00",28.7,32.7,,47.5,16841,131,294,989.98,46.1,-0.1
"2019-01-20 17:27:07+00",28.9,32.9,,47.3,-1058,513,173,990.04,46,27.1
"2019-01-20 17:32:07+00",34.0,37.0,,46.6,-1339,716,63,990.12,45.6,17.8
"2019-01-20 17:37:07+00",30.1,33.1,,46,-1214,577,72,990.03,45,32.5
"2019-01-20 17:42:07+00",25.9,28.9,,45.3,-1079,465,72,990.24,44.5,10.8
"2019-01-20 17:47:07+00",27.8,31.8,,45.2,-1134,546,85,990.36,44.3,2.7
"2019-01-20 17:52:07+00",26.0,32.0,,45,-1024,574,67,990.4,44.1,6
"2019-01-20 17:57:07+00",24.2,27.2,,45.2,-896,635,77,990.46,44.3,47.9
"2019-01-20 18:02:07+00",26.3,29.3,,44.6,-950,720,65,990.6,44.1,44.8
"2019-01-20 18:07:07+00",29.6,33.6,,44.2,-1089,782,97,990.66,43.8,71.5
"2019-01-20 18:12:07+00",37.8,40.8,,43.4,-1287,1105,96,990.68,43.3,110.5
"2019-01-20 18:17:07+00",36.7,40.7,,42.7,-1195,1121,102,990.59,42.7,100.6
"2019-01-20 18:22:07+00",32.3,38.3,,42.2,-1092,934,95,990.68,42.2,28.3
"2019-01-20 18:27:07+00",27.8,30.8,,42.1,-997,768,72,990.82,41.9,18
"2019-01-20 18:32:07+00",33.7,41.7,,42,-1173,973,102,990.88,41.8,19.1
"2019-01-20 18:37:07+00",29.6,32.6,,41.9,-1038,820,84,991.06,41.7,37.8
"2019-01-20 18:42:07+00",30.4,36.4,,41.9,-1001,934,84,990.85,41.8,102.2
"2019-01-20 18:47:07+00",30.4,33.4,,41.8,-956,980,73,990.96,41.7,41.2
"2019-01-20 18:52:07+00",25.2,31.2,,41.8,-792,802,109,991.08,41.7,70.3
"2019-01-20 18:57:07+00",25.8,30.8,,41.9,-844,789,81,991.25,42.2,275.3
"2019-01-20 19:02:07+00",28.5,32.5,,41.9,-970,826,70,991.48,42.4,140.4
"2019-01-20 19:07:07+00",33.3,37.3,,41.9,-1105,1041,94,991.59,42,254.2
"2019-01-20 19:12:07+00",36.2,41.2,,41.6,-1153,1153,99,991.74,41.8,20.8
"2019-01-20 19:17:07+00",36.2,40.2,,41.5,-1080,1202,97,991.94,41.8,214.6
"2019-01-20 19:22:07+00",36.3,39.3,,41.2,-1174,1147,94,992.18,41.5,235.6
"2019-01-20 19:27:07+00",22.4,26.4,,41.1,-681,725,92,992.64,41.5,76
"2019-01-20 19:32:07+00",35.6,41.6,,40.3,-1117,1128,61,992.79,40.7,140.9
"2019-01-20 19:37:07+00",29.5,32.5,,40,-972,891,96,993.01,40.3,99
"2019-01-20 19:42:07+00",33.4,38.4,,40,-1159,964,93,993.21,40.4,133.2
"2019-01-20 19:47:07+00",30.7,37.7,,39.2,-1054,875,91,993.36,39.6,48
"2019-01-20 19:52:07+00",36.6,40.6,,38.9,-1257,1069,87,993.47,39.3,228.8
"2019-01-20 19:57:07+00",33.2,41.2,,38.8,-1100,1027,100,993.68,39.4,171.6
"2019-01-20 20:02:07+00",34.1,38.1,,38.2,-1239,931,90,993.87,39.1,80.2
"2019-01-20 20:07:07+00",33.3,36.3,,37.7,-1033,1084,92,994.09,38.5,117.9
"2019-01-20 20:12:07+00",28.7,34.7,,37.4,-967,855,84,994.14,38.2,205.3
"2019-01-20 20:17:07+00",34.2,36.2,,36.7,-1188,987,89,994.36,37.5,84.7
"2019-01-20 20:22:07+00",33.8,38.8,,36.6,-1122,1015,62,994.44,37.4,134.9
"2019-01-20 20:27:07+00",27.3,34.3,,36.5,-955,805,121,994.65,37.1,79.4
"2019-01-20 20:32:07+00",23.9,30.9,,35.7,-661,865,88,995.26,36.5,48.1
"2019-01-20 20:37:07+00",30.8,33.8,,35,-743,1149,101,995.41,35.9,90
"2019-01-20 20:42:07+00",35.8,39.8,,34.1,-968,1260,101,995.53,35,86.8
"2019-01-20 20:47:07+00",38.9,45.9,,33.8,-1063,1340,119,995.77,34.5,33
"2019-01-20 20:52:07+00",40.4,46.4,,33.3,-1160,1392,95,995.89,33.8,0
"2019-01-20 20:57:07+00",37.3,42.3,,32.9,-1124,1239,101,996.23,33.3,0
"2019-01-20 21:02:07+00",40.5,45.5,,32.4,-1212,1354,93,996.32,32.8,0
"2019-01-20 21:07:07+00",32.4,37.4,,32.1,-900,1127,84,996.49,32.5,0
"2019-01-20 21:12:07+00",29.1,33.1,,31.9,-748,1063,59,996.65,32.5,54.9
"2019-01-20 21:17:07+00",34.7,42.7,,31.3,-721,1358,73,996.84,32,44.5
"2019-01-20 21:22:07+00",32.4,38.4,,31.3,-958,1114,85,996.89,31.9,37.1
"2019-01-20 21:27:07+00",35.9,41.9,,30.9,-880,1317,85,996.98,31.5,28.5
"2019-01-20 21:32:07+00",29.9,34.9,,31,-713,1120,77,997.25,31.4,19.3
"2019-01-20 21:37:07+00",36.2,41.2,,30.8,-769,1401,107,997.37,31.3,10.6
"2019-01-20 21:42:07+00",26.6,32.6,,30.8,-693,969,83,997.63,31.2,3.8
"2019-01-20 21:47:07+00",29.9,36.9,,30.6,-722,1107,109,997.57,30.9,0.1
"2019-01-20 21:52:07+00",24.8,28.8,,30.7,-732,853,95,997.87,31,0
"2019-01-20 21:57:07+00",33.7,38.7,,30.6,-1028,1122,95,998.08,30.9,0
"2019-01-20 22:02:07+00",30.1,35.1,,30.3,-869,1026,81,998.12,30.6,0
"2019-01-20 22:07:07+00",25.0,29.0,,30.2,-719,848,72,998.56,30.4,0
"2019-01-20 22:12:07+00",30.0,36.0,,29.7,-908,1011,97,998.58,29.9,0
"2019-01-20 22:17:07+00",30.2,34.2,,29.5,-894,1005,93,998.71,29.8,0
"2019-01-20 22:22:07+00",30.7,35.7,,28.9,-702,1168,83,998.83,29.2,0
"2019-01-20 22:27:07+00",29.7,32.7,,28.9,-762,1075,68,998.98,28.9,0
"2019-01-20 22:32:07+00",29.1,31.1,,28.8,-779,1041,62,999.05,28.9,0
"2019-01-20 22:37:07+00",24.4,27.4,,28.7,-627,890,73,999.11,28.8,0
"2019-01-20 22:42:07+00",29.7,33.7,,28.8,-931,953,71,999.16,29,0
"2019-01-20 22:47:07+00",33.5,37.5,,28.3,-940,1170,102,999.33,28.7,0
"2019-01-20 22:52:07+00",34.1,38.1,,28.3,-1121,1031,143,999.51,28.5,0
"2019-01-20 22:57:07+00",36.5,45.5,,28,-956,1307,81,999.73,28.4,0
"2019-01-20 23:02:07+00",34.9,38.9,,27.6,-899,1267,75,999.75,27.9,0
"2019-01-20 23:07:07+00",30.4,36.4,,27.7,-925,998,83,999.87,28,0
"2019-01-20 23:12:07+00",36.1,42.1,,27.6,-1121,1163,106,1000,27.9,0
"2019-01-20 23:17:07+00",36.6,40.6,,27.3,-920,1335,90,1000.38,27.7,0
"2019-01-20 23:22:07+00",30.7,34.7,,27,-748,1143,69,1000.51,27.3,0
"2019-01-20 23:27:07+00",35.9,41.9,,27,-976,1260,70,1000.62,27.2,0
"2019-01-20 23:32:07+00",29.9,32.9,,27,-935,981,112,1000.89,27.2,0
"2019-01-20 23:37:07+00",40.1,44.1,,26.5,-1320,1229,126,1000.82,27,0
"2019-01-20 23:42:07+00",37.8,41.8,,26,-1141,1259,89,1000.97,26.6,0
"2019-01-20 23:47:07+00",27.9,31.9,,26.3,-847,936,101,1001.31,26.6,0
"2019-01-20 23:52:07+00",35.8,39.8,,25.6,-959,1270,80,1001.51,26.2,0
"2019-01-20 23:57:07+00",34.2,41.2,,25.4,-1025,1123,92,1001.61,25.8,0
